Temperature
21 21 20 20 18 17 18 19 19 19 19 19 19 19 18 18 18 18 18 18 18 18 17 17 17 17 17 18 18 18 18 18 17 17 17 18 18 18 18 18 18 18 18 18 18 18 18 17 17
21 20 20 20 17 18 19 19 19 20 20 20 19 19 18 18 18 18 18 17 17 17 17 17 17 17 18 18 18 18 18 17 18 17 17 17 17 17 17 17 17 17 17 17 17 17 17 17 17
21 20 20 17 17 18 19 19 19 20 20 20 19 18 18 18 18 18 18 18 17 17 17 17 17 17 17 17 18 18 17 17 17 17 17 17 17 17 17 17 17 17 17 17 17 17 17 17 17
21 21 20 17 19 19 19 19 19 20 20 20 19 18 18 18 18 18 18 18 18 18 17 17 17 17 17 17 17 17 17 17 17 17 17 17 17 17 17 17 17 17 17 17 17 17 17 17 17
21 20 17 18 19 19 19 20 20 20 19 19 18 17 18 18 18 18 18 18 18 18 17 17 17 17 17 17 17 17 17 17 17 17 17 17 17 17 17 17 17 17 17 17 17 17 17 17 17
21 18 17 18 19 19 19 20 20 19 19 19 18 17 17 18 18 18 18 18 18 17 17 17 17 17 17 17 17 17 17 17 17 17 17 17 17 17 17 17 17 17 17 17 17 17 17 17 17
19 16 17 18 19 19 20 20 20 19 19 19 19 17 17 18 18 18 18 18 17 17 17 17 17 17 17 17 17 17 17 17 17 17 17 17 16 16 16 16 16 16 16 16 16 16 16 16 16
21 17 18 18 18 19 20 20 20 20 19 19 19 18 17 18 18 18 17 17 17 17 17 17 17 17 17 17 17 17 17 17 16 16 16 16 16 16 16 16 16 16 16 16 16 16 16 16 16
21 17 17 18 18 19 20 20 20 20 19 19 18 19 19 18 18 17 17 17 17 17 17 17 17 17 17 17 17 17 16 16 16 16 16 16 16 16 16 16 16 16 16 16 16 16 16 16 16
19 17 18 19 19 19 19 19 20 19 18 18 18 18 18 18 18 18 17 17 17 17 17 17 17 17 17 17 17 17 16 16 16 16 16 16 16 16 16 16 16 16 16 16 16 16 16 16 16
19 18 19 19 20 20 19 19 19 19 18 18 18 18 18 18 18 18 18 17 17 17 17 17 17 17 16 16 16 16 16 16 16 16 16 16 16 16 16 16 16 16 16 16 16 16 16 16 16
19 19 19 20 20 20 19 19 19 19 19 20 19 19 18 18 18 18 18 17 17 17 17 17 17 17 16 16 16 16 16 16 16 16 16 16 16 16 16 16 15 16 16 16 16 15 15 15 15
19 19 20 20 20 20 19 19 19 19 19 20 19 19 18 18 18 18 18 18 17 17 17 17 17 17 16 16 16 16 16 16 16 16 16 16 16 15 15 15 15 15 15 15 15 15 15 15 15
19 19 19 20 20 20 19 19 19 19 19 19 19 18 18 18 18 18 18 17 17 17 17 17 17 16 16 16 16 16 16 16 16 16 16 15 15 15 15 15 15 15 15 15 15 15 15 15 15
20 19 19 19 19 19 19 18 18 19 19 19 18 18 18 18 18 18 18 18 18 17 17 17 17 17 16 16 16 16 16 16 16 16 15 15 15 15 15 15 15 15 15 15 15 15 15 15 14
19 18 18 19 19 19 19 18 18 19 19 18 18 18 18 18 18 18 18 18 18 17 17 17 17 17 16 16 16 16 16 16 16 16 15 15 15 15 15 15 15 15 15 14 14 14 14 14 14
18 17 18 18 19 19 18 18 17 18 18 17 17 17 18 18 18 18 18 18 18 17 17 17 17 17 16 16 16 16 16 16 16 15 15 15 15 15 15 15 15 14 14 14 14 14 14 14 14
18 17 18 18 18 18 17 17 17 17 17 17 17 17 17 17 18 18 18 18 18 17 17 17 17 16 16 16 16 16 16 16 15 15 15 15 15 15 15 15 14 14 14 14 14 14 14 14 14
18 18 18 18 18 18 17 17 17 16 16 16 16 17 17 17 18 18 18 18 17 17 17 17 17 17 16 16 16 16 16 15 15 15 15 15 15 15 15 14 14 14 14 14 14 14 13 13 13
18 18 18 18 18 18 16 16 16 16 16 16 16 16 17 17 17 18 18 17 17 17 17 17 17 17 16 16 16 16 16 15 15 15 15 15 15 14 14 14 14 14 14 14 14 13 13 13 13
18 18 18 18 18 17 17 16 16 16 16 16 17 17 17 17 17 17 17 17 17 17 17 17 17 16 16 16 16 16 15 15 15 15 15 15 14 14 14 14 14 14 14 14 14 13 13 13 13
18 19 18 18 17 16 17 16 16 15 15 15 16 16 16 17 17 17 17 17 17 17 17 17 17 16 16 16 16 15 15 15 15 15 15 15 14 14 14 14 14 14 14 14 13 13 13 13 13
18 18 18 17 16 16 16 15 15 15 15 15 15 16 16 17 17 17 17 17 17 17 17 16 16 16 16 16 15 15 15 15 15 15 14 14 14 14 14 14 14 14 14 13 13 13 13 13 13
18 17 16 15 15 16 16 15 15 15 15 16 16 16 16 17 17 17 17 17 17 16 16 16 16 16 16 15 15 15 15 15 15 14 14 14 14 14 14 14 13 13 13 13 13 13 13 13 13
17 16 15 15 14 15 15 15 15 16 15 15 15 16 17 17 17 16 16 16 16 16 16 16 16 16 15 15 15 15 15 15 14 14 14 14 14 14 14 13 13 13 13 13 13 13 13 13 12
17 16 15 15 15 14 15 15 15 16 16 16 16 16 16 16 16 16 16 16 16 16 16 16 16 16 15 15 15 15 15 14 14 14 14 14 14 13 13 13 13 13 13 13 13 13 12 12 12
16 15 15 14 14 14 14 14 15 15 15 15 15 15 15 16 16 16 16 16 16 16 16 16 15 15 15 15 15 15 14 14 14 14 14 14 13 13 13 13 13 13 13 12 12 12 12 12 12
16 14 13 14 14 14 15 15 14 15 15 14 14 14 15 15 16 16 16 16 16 16 16 16 15 15 15 15 15 15 14 14 14 14 14 13 13 13 13 13 13 12 12 12 12 12 12 12 12
15 15 14 13 13 14 14 14 15 15 14 14 14 15 15 15 16 16 16 16 15 15 15 15 15 15 15 15 14 14 14 14 14 14 14 13 13 13 13 12 12 12 12 12 12 12 12 12 12
16 15 13 14 13 12 13 14 15 14 14 14 14 15 15 15 16 16 16 16 15 15 15 15 15 15 15 15 14 14 14 14 14 13 13 13 13 13 12 12 12 12 12 12 12 12 11 11 11
Wind_Speed
1 4 3 4 5 5 2 2 0 1 2 2 4 6 6 4 2 2 1 2 2 2 1 3 5 6 7 8 8 9 9 9 9 9 9 9 10 9 9 10 10 10 10 11 11 11 11 10 10
2 2 4 5 5 3 2 2 1 1 4 4 5 5 6 4 3 3 1 2 3 3 2 4 7 7 8 9 9 10 10 10 9 9 9 9 9 9 9 9 9 10 10 10 10 10 10 10 10
3 3 4 4 4 3 2 1 2 3 4 3 4 4 4 3 2 3 2 4 4 3 3 4 8 8 9 9 9 9 9 9 10 9 9 9 9 9 9 9 9 9 9 9 9 9 9 9 9
3 4 5 5 3 1 2 2 3 4 3 4 4 5 3 2 2 3 5 6 5 3 4 5 8 8 9 9 9 9 9 9 9 9 9 9 9 9 9 9 9 9 9 9 9 9 9 9 9
4 4 5 3 1 1 0 1 3 4 3 3 4 4 3 4 4 7 6 5 5 4 4 5 7 8 8 8 9 9 9 9 9 9 8 8 8 8 8 8 8 8 8 8 8 9 9 9 9
4 4 4 2 0 1 1 1 3 4 3 3 4 4 1 2 5 6 5 5 5 5 4 5 6 8 8 8 9 9 9 9 9 9 9 8 8 8 9 9 8 8 8 8 9 9 9 9 9
4 4 4 3 1 1 0 2 3 4 3 3 5 5 1 1 3 5 6 6 5 5 5 5 5 6 7 8 8 8 8 8 8 9 9 8 8 9 9 9 9 8 8 9 9 9 10 9 10
5 5 3 2 3 2 1 2 2 3 3 3 4 6 4 4 4 6 6 6 5 5 4 4 5 6 6 5 6 7 7 8 8 8 8 8 8 9 9 9 9 8 8 9 10 10 10 10 10
4 4 2 4 5 3 2 3 2 3 5 3 2 3 4 8 8 7 6 5 4 3 3 3 4 4 5 4 5 6 6 7 7 7 8 8 8 8 7 9 9 9 9 9 9 10 10 10 10
4 3 4 3 4 4 2 3 3 4 4 3 4 5 7 9 9 8 6 5 4 3 2 2 2 3 3 3 5 5 5 6 6 6 7 7 7 7 7 8 9 9 9 9 10 10 10 9 8
3 4 2 1 3 4 3 3 2 6 2 3 5 7 9 8 8 7 6 5 4 3 3 2 2 3 3 3 4 4 4 5 5 5 6 7 7 7 7 6 7 8 8 8 8 9 8 8 7
3 1 2 1 2 3 4 4 3 3 4 4 7 10 10 9 8 7 7 5 4 3 3 3 3 3 3 3 3 3 3 3 3 4 5 5 4 4 4 4 5 6 6 6 6 6 7 8 7
2 1 1 3 4 3 4 3 3 1 1 5 8 9 9 9 7 5 4 4 4 4 3 3 4 3 3 3 2 3 2 2 3 3 4 4 3 3 3 3 4 5 5 5 5 5 6 6 6
2 2 2 2 2 2 3 1 2 2 3 7 9 9 7 7 6 4 4 4 4 4 4 3 4 3 3 2 2 2 2 2 3 3 3 4 4 3 3 3 3 4 4 5 5 5 5 4 5
3 4 3 1 1 2 4 0 3 3 6 7 7 7 6 5 5 5 5 5 5 4 4 4 4 3 3 3 2 2 2 3 3 3 4 4 4 4 4 3 3 3 5 5 5 5 5 4 5
3 3 0 3 2 2 5 4 4 3 7 7 6 6 5 5 5 5 4 4 4 3 4 3 4 4 3 2 2 2 3 3 3 3 4 4 4 5 4 3 2 3 5 4 4 3 4 4 4
2 2 3 3 2 3 4 4 3 3 7 7 6 5 5 5 4 4 4 4 4 4 4 4 3 4 4 3 3 3 3 3 2 3 3 4 4 5 5 3 3 4 4 3 3 3 3 3 3
5 4 3 4 2 4 4 4 2 3 5 7 6 5 5 6 7 6 5 5 4 4 4 4 3 3 3 3 3 2 2 2 2 3 3 4 4 5 4 3 4 4 4 3 3 4 3 3 3
5 4 4 4 2 4 4 5 5 3 4 5 6 6 7 7 5 4 4 5 4 4 4 4 4 3 3 2 2 2 1 1 1 1 2 3 4 4 4 3 3 3 3 3 3 3 4 3 2
4 3 3 2 1 3 3 4 4 3 5 7 8 9 8 6 3 3 4 4 5 5 5 4 4 4 4 3 3 2 2 1 1 1 2 2 3 4 4 4 3 3 3 4 3 3 2 1 2
3 5 5 3 1 2 1 4 3 3 3 4 6 7 7 8 7 5 5 5 5 5 6 5 5 4 4 3 3 3 3 3 2 1 1 0 2 3 3 4 3 3 3 3 3 3 4 2 1
5 5 5 4 3 2 2 3 5 3 3 4 5 5 6 6 6 5 5 5 5 6 5 5 4 3 3 4 4 5 3 2 2 1 1 1 1 2 3 3 4 3 3 3 3 2 2 3 2
4 1 3 3 3 0 0 2 6 1 3 6 6 7 7 6 6 6 6 6 5 5 5 4 4 3 3 4 5 5 3 2 1 1 2 1 1 1 2 3 3 3 2 3 3 2 2 2 3
3 4 4 4 3 1 3 4 6 4 6 5 5 6 7 7 6 6 5 5 4 3 4 4 4 4 4 4 5 5 5 4 4 2 2 1 0 1 1 2 2 2 2 2 2 2 3 2 2
4 5 2 2 1 5 2 3 7 6 5 5 6 6 6 6 6 6 5 5 4 4 4 4 5 4 4 5 5 6 6 6 6 4 4 2 1 0 1 1 2 1 2 2 2 2 2 2 2
4 7 6 4 4 4 1 5 6 5 2 1 2 2 3 4 5 6 6 6 5 5 5 5 5 4 4 5 5 5 5 4 4 4 4 4 3 3 2 2 2 2 2 2 2 2 1 1 2
5 3 5 5 2 1 4 5 6 2 3 2 2 2 2 3 5 5 5 5 5 5 5 5 5 5 5 5 5 4 4 5 4 4 4 3 2 2 3 3 2 2 2 2 2 2 1 2 1
4 6 5 5 4 3 4 4 4 4 3 2 0 1 1 2 3 4 4 4 4 5 5 4 5 6 5 4 4 4 4 4 4 4 4 3 3 3 3 3 3 2 2 2 2 1 2 2 1
3 3 4 4 4 5 3 5 4 5 4 3 3 3 3 3 4 4 4 5 4 4 3 4 4 4 4 4 4 4 4 3 3 4 4 4 3 4 4 4 3 3 2 2 2 2 2 2 1
4 5 6 4 3 4 3 6 4 3 3 3 2 2 2 2 2 2 2 3 3 3 3 4 4 4 4 4 4 4 4 3 3 3 4 4 4 4 4 3 3 3 3 3 3 3 2 2 2
Wind_Direction
76 91 81 57 55 54 43 330 243 71 63 47 63 80 92 86 93 126 246 140 130 136 136 110 94 93 93 93 92 88 87 86 86 86 87 89 90 92 96 93 92 91 89 87 87 85 82 82 82
116 99 59 60 79 73 336 312 100 99 139 128 73 72 74 69 74 107 113 138 127 126 109 109 99 94 93 94 92 89 87 85 85 84 83 85 88 90 93 93 92 91 89 89 87 84 83 82 81
120 67 78 72 96 149 182 245 143 79 104 102 75 62 80 87 109 147 168 138 118 105 95 105 101 96 93 92 90 90 89 85 84 83 84 84 84 85 86 89 91 90 87 87 87 86 83 81 80
93 52 55 72 94 207 188 185 142 113 76 60 92 71 60 43 145 145 128 124 117 103 93 101 103 101 98 93 92 91 89 86 85 82 82 81 80 81 81 84 86 88 87 86 84 83 82 81 80
64 78 66 60 29 328 322 165 125 103 80 61 86 87 46 8 87 111 119 122 120 104 88 99 102 102 100 97 94 92 90 88 87 86 85 83 80 79 79 82 83 84 83 84 84 82 83 80 79
61 71 91 129 346 353 13 115 111 91 96 92 96 102 73 51 103 122 119 114 111 103 83 89 95 96 95 94 92 90 91 88 85 84 82 79 77 75 77 79 81 81 80 80 82 81 83 79 80
106 98 133 150 124 337 172 109 114 117 116 139 127 111 121 118 137 128 112 102 94 88 78 65 72 82 84 85 86 85 84 83 82 81 78 73 71 72 72 74 78 80 79 78 78 79 80 78 78
121 104 105 145 164 220 145 108 104 111 118 114 119 138 174 188 138 110 92 84 84 78 73 64 62 66 66 70 79 79 79 76 72 72 71 66 64 63 66 67 74 78 79 78 75 73 73 73 75
94 86 156 189 176 195 143 113 87 84 99 86 90 147 160 137 124 108 91 78 88 93 72 75 67 62 65 69 71 67 65 63 60 58 63 61 54 53 58 63 73 76 78 78 76 72 70 68 70
93 137 204 202 171 161 135 121 128 92 81 74 67 72 110 127 133 132 134 139 148 155 141 102 94 74 64 69 66 58 55 57 56 56 57 59 55 52 56 56 69 72 73 75 74 70 67 64 62
121 162 186 162 155 138 121 109 108 124 135 188 167 148 138 139 143 152 161 161 170 171 157 138 124 90 77 67 71 64 60 59 58 59 63 65 60 54 51 50 52 58 61 60 60 60 60 62 62
121 150 160 159 135 121 137 136 118 149 207 187 163 153 149 154 164 170 174 174 160 148 161 146 135 115 97 83 80 82 72 66 64 65 73 76 65 55 52 53 50 53 59 62 61 63 61 61 60
132 153 122 120 113 123 115 124 146 195 183 120 131 142 155 164 171 174 168 164 160 165 179 164 144 137 124 108 101 97 92 88 89 84 81 90 85 72 63 62 61 58 65 71 70 68 64 60 57
158 120 100 99 124 141 136 157 134 227 142 134 146 160 170 175 174 158 156 168 176 181 187 170 155 153 142 141 133 122 113 110 103 99 98 102 103 92 83 74 68 64 75 80 81 81 77 67 64
101 88 39 11 154 173 131 357 238 213 149 153 166 172 174 182 172 175 184 185 186 181 176 169 165 147 142 147 141 115 103 104 94 95 103 106 111 108 101 87 77 77 86 87 82 75 74 72 66
72 80 23 276 193 172 144 239 257 188 158 173 184 181 180 194 193 195 190 182 174 166 160 168 171 150 150 148 127 99 94 99 95 101 104 107 115 119 106 92 84 88 92 91 87 79 77 68 65
67 164 214 274 213 161 164 234 265 172 169 187 194 191 194 204 210 205 197 183 173 169 157 157 153 149 156 146 121 105 99 97 94 101 104 110 112 117 116 106 97 98 90 82 91 74 91 89 74
196 193 207 230 224 151 183 242 266 174 180 197 198 197 200 209 217 203 194 182 170 160 146 145 142 141 136 119 102 92 82 71 76 91 104 113 113 113 116 109 106 105 95 81 88 86 70 85 86
167 170 214 238 198 167 205 248 267 200 192 206 207 204 205 215 221 190 182 172 158 153 147 155 153 149 137 129 135 133 142 126 77 79 98 112 113 114 116 112 111 109 110 114 114 103 86 70 74
164 184 231 273 184 180 223 266 272 225 207 209 209 209 207 204 200 188 177 171 173 175 171 171 171 162 166 169 158 149 141 140 133 76 74 101 117 122 125 124 132 128 119 109 110 114 108 84 68
206 197 212 224 34 79 102 310 281 265 228 220 213 210 206 201 200 193 182 184 181 185 187 185 186 175 172 154 117 93 75 61 57 44 49 47 120 126 128 136 133 137 136 142 148 140 135 141 71
232 225 200 193 153 246 167 268 285 261 264 240 229 212 209 208 197 190 186 188 194 197 188 181 170 165 161 148 149 153 155 160 187 185 174 91 105 119 129 137 136 138 141 150 164 146 148 145 153
213 175 159 179 163 140 177 197 281 292 265 255 235 220 213 206 195 190 192 195 197 187 178 177 161 156 159 162 164 163 162 160 134 115 107 88 57 82 116 133 133 141 149 158 158 149 153 157 162
130 70 60 56 86 242 230 188 273 242 228 244 234 220 210 202 197 194 192 183 184 174 166 164 167 172 172 174 174 175 173 161 146 152 153 143 88 59 81 120 130 146 153 167 173 164 165 169 158
99 95 39 353 352 249 240 197 249 255 234 223 225 222 209 197 191 187 185 186 185 178 182 178 179 187 184 183 190 190 184 175 178 183 181 168 164 190 189 124 132 142 163 165 158 155 169 168 164
171 149 164 204 221 265 271 232 257 275 281 228 201 185 176 190 191 188 190 188 188 189 190 188 192 198 192 193 201 194 185 183 192 190 186 187 195 198 176 155 146 138 142 149 143 147 172 154 166
140 170 164 139 164 247 273 284 303 333 14 37 67 97 150 181 185 186 187 186 187 192 197 199 197 201 201 206 201 185 185 189 194 189 186 189 188 176 161 161 148 138 134 137 138 145 160 150 161
135 143 111 133 166 240 284 275 258 278 295 319 246 196 200 158 165 180 183 187 191 196 200 199 196 201 201 199 201 194 191 190 184 175 185 192 189 170 161 161 155 146 143 139 131 150 164 146 162
91 105 118 133 159 167 244 271 242 233 244 239 235 221 198 188 182 182 190 189 188 190 191 198 200 199 197 197 196 187 186 178 170 183 195 192 184 176 174 177 170 168 172 163 157 164 163 162 168
170 168 150 161 212 179 185 264 293 240 248 231 240 228 199 192 188 180 177 176 174 189 204 208 202 195 196 192 186 184 174 165 173 192 197 186 183 181 179 172 169 177 181 181 181 188 181 181 189
Height
1488 1488 1489 1490 1494 1504 1508 1503 1500 1499 1499 1500 1499 1500 1502 1505 1508 1514 1510 1508 1508 1508 1508 1508 1508 1508 1508 1508 1508 1508 1507 1507 1508 1508 1508 1509 1509 1510 1510 1511 1512 1512 1513 1513 1514 1515 1515 1516 1516
1488 1489 1491 1491 1502 1514 1511 1502 1500 1499 1499 1500 1500 1502 1503 1506 1507 1508 1508 1509 1509 1509 1509 1510 1510 1509 1509 1509 1509 1510 1509 1509 1510 1510 1510 1510 1511 1511 1512 1512 1513 1513 1514 1515 1515 1516 1516 1517 1518
1489 1490 1492 1495 1505 1512 1508 1501 1500 1499 1500 1500 1502 1504 1505 1507 1508 1509 1509 1510 1510 1511 1511 1511 1511 1511 1511 1511 1511 1511 1511 1511 1511 1511 1512 1512 1512 1513 1513 1514 1514 1515 1515 1516 1516 1517 1517 1518 1519
1489 1491 1493 1501 1506 1504 1501 1499 1499 1499 1501 1501 1503 1506 1508 1510 1510 1510 1510 1511 1512 1512 1513 1513 1513 1513 1513 1513 1513 1513 1513 1513 1513 1513 1513 1513 1514 1514 1514 1515 1516 1516 1516 1517 1517 1518 1518 1519 1520
1490 1491 1499 1507 1505 1501 1499 1498 1499 1500 1502 1503 1504 1507 1509 1511 1511 1511 1512 1512 1513 1514 1514 1514 1515 1515 1515 1515 1515 1515 1515 1514 1514 1515 1515 1515 1515 1515 1516 1516 1517 1517 1518 1518 1518 1519 1519 1520 1521
1491 1493 1508 1512 1506 1501 1499 1499 1500 1501 1503 1504 1505 1508 1510 1512 1512 1513 1513 1514 1515 1515 1515 1516 1516 1516 1517 1517 1517 1516 1516 1516 1516 1516 1516 1517 1517 1517 1517 1517 1518 1518 1519 1519 1520 1520 1520 1521 1522
1492 1498 1507 1507 1507 1503 1500 1500 1501 1502 1503 1505 1506 1508 1511 1512 1513 1514 1515 1516 1516 1517 1517 1517 1518 1518 1518 1518 1518 1518 1518 1518 1518 1518 1518 1518 1518 1518 1519 1519 1519 1520 1520 1521 1521 1521 1521 1522 1523
1491 1498 1505 1507 1507 1504 1501 1501 1502 1503 1504 1506 1507 1508 1510 1512 1513 1514 1515 1517 1517 1518 1518 1519 1519 1519 1519 1520 1520 1520 1520 1520 1520 1520 1520 1520 1520 1520 1520 1520 1520 1521 1521 1522 1522 1522 1523 1524 1524
1492 1502 1508 1505 1504 1503 1500 1501 1503 1504 1504 1506 1507 1508 1509 1511 1513 1515 1516 1517 1518 1519 1519 1520 1520 1520 1521 1521 1521 1521 1521 1521 1521 1521 1521 1521 1521 1521 1521 1521 1522 1522 1522 1523 1523 1524 1524 1525 1525
1492 1503 1502 1498 1498 1499 1500 1501 1502 1504 1505 1507 1507 1508 1510 1512 1513 1515 1516 1517 1518 1519 1520 1520 1521 1521 1522 1522 1522 1522 1522 1522 1522 1522 1522 1522 1522 1522 1523 1523 1523 1523 1524 1524 1524 1525 1525 1526 1526
1492 1498 1497 1497 1497 1498 1500 1501 1503 1504 1507 1506 1507 1508 1510 1512 1513 1515 1516 1518 1519 1520 1521 1521 1522 1522 1523 1523 1523 1523 1523 1523 1523 1524 1524 1524 1524 1524 1524 1524 1524 1524 1525 1525 1526 1526 1526 1527 1527
1494 1495 1495 1496 1497 1498 1500 1501 1503 1504 1505 1506 1507 1508 1510 1512 1513 1515 1517 1518 1520 1521 1521 1522 1522 1523 1523 1524 1524 1524 1524 1524 1525 1525 1525 1525 1525 1525 1525 1525 1526 1526 1526 1526 1527 1527 1527 1528 1528
1494 1495 1496 1497 1498 1499 1500 1502 1503 1504 1505 1506 1508 1509 1510 1512 1514 1516 1518 1519 1520 1521 1522 1522 1523 1524 1524 1524 1525 1525 1525 1525 1526 1526 1526 1526 1526 1526 1526 1526 1527 1527 1527 1527 1527 1527 1528 1528 1528
1494 1495 1497 1498 1499 1500 1501 1502 1504 1504 1505 1506 1508 1509 1511 1512 1514 1516 1517 1519 1520 1521 1522 1523 1524 1524 1525 1525 1526 1526 1526 1526 1527 1527 1527 1527 1527 1527 1527 1527 1527 1527 1527 1527 1528 1528 1528 1528 1528
1494 1497 1499 1499 1499 1500 1501 1505 1503 1503 1505 1506 1508 1509 1511 1513 1514 1515 1517 1518 1520 1521 1522 1523 1524 1525 1525 1526 1526 1527 1527 1527 1527 1528 1528 1527 1527 1527 1528 1528 1528 1528 1527 1527 1528 1528 1528 1529 1529
1496 1501 1506 1501 1499 1499 1505 1509 1503 1502 1504 1505 1507 1509 1510 1512 1513 1515 1516 1518 1519 1521 1522 1523 1524 1524 1525 1526 1526 1527 1527 1527 1528 1528 1528 1528 1528 1528 1528 1528 1528 1528 1528 1528 1528 1528 1528 1529 1529
1503 1509 1508 1503 1498 1499 1503 1506 1502 1502 1503 1504 1506 1507 1509 1511 1512 1514 1516 1517 1518 1520 1521 1522 1523 1524 1525 1526 1526 1527 1527 1528 1528 1528 1528 1528 1528 1528 1528 1528 1528 1528 1528 1528 1528 1528 1529 1529 1529
1507 1507 1507 1505 1499 1500 1504 1504 1501 1501 1502 1503 1504 1506 1507 1508 1510 1512 1514 1516 1517 1519 1520 1521 1522 1523 1525 1525 1526 1527 1527 1528 1528 1528 1528 1528 1528 1528 1528 1528 1528 1528 1528 1528 1528 1528 1529 1529 1529
1497 1502 1505 1502 1497 1501 1504 1503 1500 1500 1501 1502 1503 1503 1505 1506 1509 1511 1512 1514 1516 1517 1519 1520 1521 1522 1523 1524 1525 1526 1526 1527 1527 1528 1528 1528 1528 1528 1528 1528 1528 1528 1528 1528 1529 1529 1529 1529 1529
1496 1502 1503 1500 1497 1500 1503 1503 1499 1498 1499 1498 1499 1500 1502 1504 1506 1508 1510 1512 1513 1515 1517 1518 1520 1521 1522 1523 1524 1525 1526 1526 1527 1527 1527 1528 1528 1528 1528 1528 1528 1528 1528 1528 1529 1529 1529 1529 1529
1497 1500 1500 1501 1499 1500 1503 1505 1501 1497 1496 1496 1497 1498 1499 1501 1503 1505 1507 1509 1511 1513 1515 1516 1518 1519 1521 1522 1523 1524 1525 1525 1526 1526 1527 1527 1527 1527 1527 1527 1528 1528 1528 1528 1528 1528 1529 1529 1529
1498 1492 1494 1497 1505 1510 1506 1517 1503 1498 1496 1495 1495 1496 1497 1499 1501 1503 1505 1507 1508 1511 1513 1514 1516 1517 1519 1520 1521 1522 1523 1524 1525 1525 1526 1526 1526 1526 1526 1527 1527 1527 1528 1528 1528 1528 1528 1528 1528
1491 1489 1493 1497 1503 1510 1509 1515 1508 1498 1497 1494 1492 1493 1494 1496 1498 1500 1502 1504 1506 1509 1510 1512 1514 1515 1517 1518 1519 1521 1522 1523 1523 1524 1525 1525 1525 1525 1526 1526 1526 1527 1527 1527 1527 1527 1527 1527 1527
1488 1493 1497 1503 1508 1517 1511 1515 1512 1500 1494 1490 1489 1489 1491 1493 1495 1497 1500 1502 1504 1506 1508 1510 1511 1513 1515 1516 1517 1519 1520 1521 1522 1522 1523 1523 1524 1524 1525 1525 1525 1526 1526 1526 1526 1526 1526 1526 1526
1491 1503 1516 1518 1523 1521 1509 1511 1507 1491 1488 1487 1486 1486 1488 1490 1493 1495 1497 1499 1501 1503 1506 1508 1509 1511 1512 1514 1515 1516 1518 1519 1520 1521 1521 1522 1522 1523 1523 1524 1524 1524 1524 1524 1525 1525 1525 1525 1525
1492 1499 1515 1522 1525 1520 1510 1511 1499 1487 1485 1484 1484 1485 1486 1488 1490 1492 1495 1497 1499 1501 1503 1505 1507 1508 1510 1512 1513 1514 1515 1517 1518 1518 1519 1520 1520 1521 1522 1522 1523 1523 1523 1523 1523 1523 1523 1523 1523
1493 1498 1499 1512 1516 1519 1514 1506 1494 1486 1485 1484 1484 1485 1485 1486 1488 1490 1493 1495 1497 1499 1501 1503 1505 1506 1508 1509 1511 1512 1513 1514 1515 1516 1517 1518 1518 1519 1519 1520 1521 1521 1521 1521 1521 1521 1521 1521 1521
1488 1494 1504 1512 1520 1523 1515 1509 1503 1491 1488 1486 1485 1485 1485 1486 1487 1489 1491 1493 1496 1498 1499 1502 1503 1504 1505 1507 1508 1509 1510 1511 1512 1513 1514 1515 1516 1516 1517 1517 1518 1518 1519 1519 1519 1519 1519 1519 1519
1493 1496 1500 1508 1511 1520 1521 1512 1490 1489 1486 1486 1484 1484 1484 1485 1486 1488 1489 1491 1494 1496 1498 1499 1500 1502 1503 1504 1505 1506 1507 1509 1510 1511 1511 1512 1513 1514 1514 1515 1515 1516 1516 1516 1517 1517 1517 1517 1517
1487 1491 1498 1507 1512 1513 1517 1511 1485 1484 1484 1483 1483 1483 1484 1484 1486 1487 1488 1490 1491 1493 1495 1496 1497 1498 1500 1501 1503 1504 1505 1506 1506 1507 1508 1509 1510 1511 1511 1512 1513 1513 1514 1514 1514 1514 1514 1514 1514